Regional Weather Roundup
Issued by NWS

Home | Current Version | Previous Version | Text Only | Print | Product List | Glossary On
Versions: 1 2 3 4 5 6 7 8 9 10 11 12 13 14 15 16 17 18 19 20 21 22 23 24 25 26 27 28 29 30 31 32 33 34 35 36 37 38 39 40 41 42 43 44 45 46 47 48 49 50
866
ASUS43 KMKX 031521
RWRWI

WISCONSIN REGIONAL WEATHER ROUNDUP
NATIONAL WEATHER SERVICE MILWAUKEE/SULLIVAN WI
900 AM CST SAT DEC 03 2016

NOTE: "FAIR" INDICATES FEW OR NO CLOUDS BELOW 12,000 FEET WITH NO
SIGNIFICANT WEATHER AND/OR OBSTRUCTIONS TO VISIBILITY.

WIZ001-002-006>008-014>016-023>028-031600-
NORTHWEST WISCONSIN

CITY           SKY/WX    TMP DP  RH WIND       PRES   REMARKS
SUPERIOR ARPT  CLOUDY    29  25  84 SW3       30.29S
ASHLAND        CLOUDY    30  26  85 SW5       30.29S WCI  25
HAYWARD        CLOUDY    29  24  82 SW3       30.26F
SIREN          CLOUDY    29  25  84 W5        30.28S WCI  24
CUMBERLAND     CLOUDY    28  23  80 W5        30.26S WCI  23
RICE LAKE      CLOUDY    29  26  88 CALM      30.29S
CHETEK         CLOUDY    29  27  92 CALM      30.28S
LADYSMITH      CLOUDY    29  27  91 CALM      30.29S
EAU CLAIRE     CLOUDY    29  25  85 SW3       30.29F
MENOMONIE      CLOUDY    29  26  87 SW5       30.29F WCI  24
NEW RICHMOND   LGT SNOW  28  27  96 SW5       30.29S WCI  23
OSCEOLA        CLOUDY    29  26  86 W7        30.32S WCI  22
$$

WIZ003>005-009-010-017-018-031600-
NORTH CENTRAL WISCONSIN

CITY           SKY/WX    TMP DP  RH WIND       PRES   REMARKS
MANITOWISH WTR CLOUDY    26  26  99 SW3       30.24S
ARBOR VITAE    CLOUDY    28  25  89 CALM      30.24F
WOODRUFF       CLOUDY    28  25  89 CALM      30.24F
RHINELANDER    CLOUDY    27  22  81 CALM      30.26S
EAGLE RIVER    CLOUDY    26  24  93 W7        30.24S WCI  19
LAND O LAKES   CLOUDY    28  26  91 CALM      30.25S
PHILLIPS       CLOUDY    27  25  94 SW5       30.25S WCI  21
TOMAHAWK       CLOUDY    27  22  82 CALM      30.27S
MEDFORD        CLOUDY    27  20  75 CALM      30.26S
MERRILL        CLOUDY    27  24  86 CALM      30.28S
$$

WIZ029-030-035-036-043>047-031600-
CENTRAL WISCONSIN

CITY           SKY/WX    TMP DP  RH WIND       PRES   REMARKS
WAUSAU         CLOUDY    29  22  75 NW7       30.27S WCI  22
MOSINEE        CLOUDY    28  25  86 W6        30.28F WCI  22
MARSHFIELD     FLURRIES  28  23  81 W8        30.26F WCI  20
STEVENS POINT  CLOUDY    28  21  74 CALM      30.29F
WAUPACA        CLOUDY    33  24  69 CALM      30.31S
WAUTOMA        CLOUDY    31  24  75 CALM      30.31F
WISC RAPIDS    CLOUDY    30  23  75 W6        30.30F WCI  24
CAMP DOUGLAS   FLURRIES  28  21  74 W3        30.31F
$$

WIZ011>013-019>022-031-037>040-048>050-031600-
NORTHEAST WISCONSIN

CITY           SKY/WX    TMP DP  RH WIND       PRES   REMARKS
ANTIGO         CLOUDY    26  24  92 W8        30.27S WCI  17
SHAWANO        CLOUDY    32  25  76 W5        30.31S WCI  27
OCONTO         CLOUDY    32  26  77 W6        30.31S WCI  26
STURGEON BAY   CLOUDY    33  28  81 W10       30.30R WCI  25
GREEN BAY      CLOUDY    33  26  75 W8        30.31S WCI  26
MANITOWOC      CLOUDY    32  24  72 MISG      30.31S
APPLETON       CLOUDY    30  21  69 W8        30.29F WCI  23
CLINTONVILLE   CLOUDY    32  23  69 CALM      30.31S
OSHKOSH        CLOUDY    31  23  72 W6        30.30F WCI  25
$$

WIZ032>034-041-042-053>061-031600-
SOUTHWEST WISCONSIN

CITY           SKY/WX    TMP DP  RH WIND       PRES   REMARKS
LA CROSSE      CLOUDY    32  23  69 CALM      30.32S
SPARTA         CLOUDY    30  23  73 CALM      30.32S
VIROQUA        CLOUDY    29  23  79 CALM      30.29S
BOSCOBEL       CLOUDY    32  23  69 CALM      30.34R
PRAIRIE DU CHI CLOUDY    32  23  69 CALM      30.33S
PLATTEVILLE    CLOUDY    31  26  80 N6        30.32S WCI  25
$$

WIZ056-057-062-063-064-067-068-031600-
SOUTH CENTRAL WISCONSIN

CITY           SKY/WX    TMP DP  RH WIND       PRES   REMARKS
REEDSBURG      CLOUDY    29  23  76 CALM      30.32R
BARABOO/DELLS  CLOUDY    29  21  73 W7        30.32R WCI  22
LONE ROCK      CLOUDY    31  22  69 CALM      30.34S
MINERAL POINT  CLOUDY    32  27  80 N5        30.31R WCI  27
MADISON        CLOUDY    30  21  69 NW7       30.33S WCI  23
MIDDLETON      CLOUDY    31  24  76 W7        30.33R WCI  24
WATERTOWN      CLOUDY    31  23  73 W6        30.31F WCI  25
MONROE         CLOUDY    30  23  74 NW7G16    30.32R WCI  23
JANESVILLE     CLOUDY    32  23  69 NW7       30.33F WCI  26
$$

WIZ051-052-058>065-066-070>072-031600-
SOUTHEAST WISCONSIN

CITY           SKY/WX    TMP DP  RH WIND       PRES   REMARKS
MILWAUKEE      CLOUDY    32  22  66 VRB6      30.33F WCI  26
WAUKESHA       CLOUDY    28  21  74 NW7       30.32F WCI  21
MILWAUKEE/TIMM CLOUDY    30  21  69 NW8       30.33F WCI  23
RACINE         CLOUDY    31  22  69 NW6       30.34F WCI  25
BURLINGTON     CLOUDY    31  24  75 NW7       30.32F WCI  24
KENOSHA        CLOUDY    32  24  72 NW5       30.33F WCI  27
FOND DU LAC    CLOUDY    32  22  66 W5        30.31F WCI  27
SHEBOYGAN      CLOUDY    31  24  75 NW8       30.32F WCI  23
WEST BEND      CLOUDY    30  27  86 W8        30.31F WCI  23
JUNEAU         CLOUDY    30  22  73 CALM      30.32S
$$

LSZ147-162-031600-
LAKE SUPERIOR

STATION/POSITION TIME  TEMP    WIND        PRES    WAVE
                       AIR SEA DIR/SP/G            HT/PER
                 (UTC) (F)     (DEG/KT/KT) (MB)    (FT/S)
DEVILS ISLAND    1500   32     230/ 13/ 16 1025.8F
PORT WING        1440   30     200/  5/  8 1025.4S
SAXON HARBOR     1440   31     200/  4/  6 1025.1F
$$

LMZ867-665-643>646-031600-
LAKE MICHIGAN

STATION/POSITION TIME  TEMP    WIND        PRES    WAVE
                       AIR SEA DIR/SP/G            HT/PER
                 (UTC) (F)     (DEG/KT/KT) (MB)    (FT/S)
CHAMBERS ISLAND  1440   35     220/  5/  8 1025.1R
NORTHPORT PIER   1440   37     310/ 10/ 13 1025.1R
SISTER BAY       1338   37     340/ 11/ 12   N/A
ALGOMA LAKESHORE 1451          260/  7/ 11   N/A
KEWAUNEE LAKESHO 1454   32     280/ 10/ 12 1025.6R
SHEBOYGAN LAKESH 1500   32     260/  9/ 10 1027.3F
PORT WASHINGTON  1430   32     280/  6/ 10 1028.1S
MILWAUKEE LAKESH 1450   31     300/  7/  8   N/A
S MID LAKE BUOY  1450   34 49  270/ 12/ 16 1027.6S   1/ 4
KENOSHA   LAKESH 1500   32     290/  7/ 11 1027.1
$$

TC  - TEMPERATURE IN CELSIUS
VSB - VISIBILITY IN STATUTE MILES
WCI - WIND CHILL INDEX
HX  - HEAT INDEX





USA.gov is the U.S. government's official web portal to all federal, state and local government web resources and services.